[[{"header":{"parameterUnit":"m.s-1","parameterCategory":1,"la1":30.2991,"la2":30.254,"lo1":-89.0895,"lo2":-89.0444,"dy":0.0017,"dx":0.0017,"nx":28,"ny":28,"refTime":"2024-04-22T03:00:00:Z","depth":0,"parameterNumber":2,"parameterNumberName":"U-component_of_WINDS"},"data":[0,0,0,0,0,0,0,0,0,0,0,0,0,0,0,0,0,0,0,0,0,0,0,0,0,0,0,0,0,0,0,0,0,0,0,0,0,0,0,0,0,0,0,0,0,0,0,0,0,0,0,0,0,0,0,0,0,0,-2.795,-2.795,0,-2.7973,-2.7973,-2.7974,-2.7957,-2.7957,-2.7956,-2.7955,-2.798,-2.7981,-2.7983,0,0,0,0,0,0,0,0,0,0,0,0,0,-2.7895,-2.7897,-2.795,-2.795,-2.7951,-2.7973,-2.7973,-2.7974,-2.7957,-2.7956,-2.7956,-2.7955,-2.798,-2.7981,-2.7983,0,0,0,0,0,0,0,0,0,0,0,0,0,-2.7919,-2.7897,-2.795,-2.7945,-2.7945,-2.7973,-2.7973,-2.7974,-2.7958,-2.7956,-2.7955,-2.7954,-2.7979,-2.7981,-2.7983,-2.8017,0,0,-2.7989,-2.799,0,0,0,0,0,0,0,0,-2.7918,-2.7921,-2.7946,-2.7946,-2.7945,-2.7961,-2.7963,-2.7988,-2.7958,-2.7953,-2.7955,-2.7954,-2.7975,-2.7977,-2.7984,-2.8018,-2.8019,-2.7989,-2.799,-2.7991,-2.7992,0,0,0,0,0,0,0,-2.7916,-2.792,-2.7959,-2.7946,-2.7946,-2.7943,-2.7945,-2.7968,-2.797,-2.7953,-2.7952,-2.7955,-2.7974,-2.7982,-2.7984,-2.802,-2.7989,-2.7991,-2.7992,-2.7993,-2.8085,-2.8087,0,0,0,0,0,0,-2.7914,-2.7919,-2.7958,-2.796,-2.7928,-2.7945,-2.7947,-2.7957,-2.7969,-2.797,-2.7956,-2.7954,-2.7979,-2.7982,-2.7985,-2.8026,-2.7991,-2.7993,-2.7994,-2.8084,-2.8086,-2.8087,0,0,0,0,0,0,-2.7913,-2.7918,-2.7958,-2.7939,-2.7944,-2.7947,-2.7958,-2.7958,-2.7965,-2.7971,-2.7972,-2.7963,-2.7978,-2.7982,-2.801,-2.8027,-2.7994,-2.7996,-2.8083,-2.8085,-2.8086,-2.8109,0,0,0,0,0,0,-2.7912,-2.7918,-2.793,-2.7939,-2.7945,-2.7981,-2.7959,-2.7959,-2.7969,-2.7967,-2.7978,-2.7979,-2.7978,-2.8007,-2.8012,-2.8029,-2.7998,-2.8081,-2.8084,-2.8086,-2.8106,-2.8111,-2.8115,0,0,0,0,0,-2.791,-2.7935,-2.7931,-2.7936,-2.796,-2.7982,-2.7985,-2.7983,-2.797,-2.7983,-2.7987,-2.7978,-2.8025,-2.801,-2.8015,-2.8033,-2.808,-2.8083,-2.8086,-2.8104,-2.811,-2.8115,0,0,0,0,0,0,-2.7928,-2.7936,-2.7931,-2.796,-2.797,-2.7979,-2.7995,-2.7989,-2.8003,-2.8,-2.7997,-2.8,-2.8029,-2.8034,-2.8017,-2.8068,-2.8051,-2.8055,-2.8063,-2.8069,-2.8073,-2.807,-2.7999,0,0,0,0,0,-2.7935,-2.7952,-2.7959,-2.7984,-2.7989,-2.7991,-2.8001,-2.7998,-2.8009,-2.8013,-2.8019,-2.803,-2.8047,-2.8059,-2.8075,-2.8108,-2.8111,-2.8124,-2.8128,-2.8132,-2.8135,-2.8154,-2.816,-2.8096,-2.8096,-2.8096,0,0,-2.795,-2.7957,-2.7968,-2.7987,-2.7995,-2.8013,-2.7995,-2.8014,-2.8028,-2.8016,-2.8042,-2.8047,-2.806,-2.8091,-2.8104,-2.8096,-2.8153,-2.8135,-2.8138,-2.8139,-2.8157,-2.8163,-2.8168,-2.8098,-2.8098,-2.8098,0,0,-2.7987,-2.7994,-2.8016,-2.8024,-2.8036,-2.8037,-2.8043,-2.8053,-2.8056,-2.8082,-2.8074,-2.8091,-2.812,-2.813,-2.8138,-2.8182,-2.8174,-2.8187,-2.8209,-2.8228,-2.8233,-2.8237,-2.8253,-2.8258,-2.8191,-2.8191,-2.8191,0,-2.8004,-2.803,-2.8028,-2.8048,-2.8057,-2.8049,-2.8071,-2.808,-2.8096,-2.8104,-2.8094,-2.8132,-2.8139,-2.8173,-2.8183,-2.8191,-2.8198,-2.8185,-2.8232,-2.8237,-2.8241,-2.8256,-2.8261,-2.8192,-2.8192,-2.8192,-2.8192,0,-2.8051,-2.8069,-2.8086,-2.8102,-2.8114,-2.8135,-2.8137,-2.815,-2.8147,-2.815,-2.8178,-2.8187,-2.8206,-2.8214,-2.8211,-2.8247,-2.8242,-2.8233,-2.8214,-2.8248,-2.8262,-2.8268,-2.8194,-2.8194,-2.8193,-2.8193,0,0,-2.8097,-2.8113,-2.8119,-2.8127,-2.8141,-2.8155,-2.8178,-2.8195,-2.8206,-2.8219,-2.8237,-2.8264,-2.8256,-2.8266,-2.8265,-2.8281,-2.8315,-2.827,-2.827,-2.8278,-2.8356,-2.8362,-2.8369,-2.8312,-2.8313,-2.8313,-2.8355,0,-2.8134,-2.8171,-2.8171,-2.8206,-2.8223,-2.8217,-2.8236,-2.8247,-2.8251,-2.8268,-2.8273,-2.8291,-2.8279,-2.8286,-2.8302,-2.8308,-2.8331,-2.8305,-2.8329,-2.833,-2.8325,-2.8376,-2.8382,-2.842,-2.836,-2.8361,-2.8362,0,-2.8182,-2.8196,-2.8232,-2.8245,-2.8252,-2.8269,-2.8286,-2.8302,-2.8315,-2.8317,-2.8329,-2.8327,-2.835,-2.8333,-2.8367,-2.8349,-2.836,-2.8364,-2.8366,-2.8367,-2.8347,-2.8378,-2.8433,-2.8438,-2.837,-2.837,-2.8369,0,-2.8211,-2.824,-2.8265,-2.8272,-2.8287,-2.83,-2.8307,-2.8319,-2.833,-2.8346,-2.8354,-2.8372,-2.8382,-2.8397,-2.84,-2.8387,-2.8433,-2.8416,-2.8436,-2.8436,-2.8445,-2.8444,-2.8501,-2.8453,-2.8453,-2.8453,-2.8453,0,-2.8252,-2.8274,-2.8279,-2.8295,-2.832,-2.8321,-2.8347,-2.8353,-2.8364,-2.8382,-2.8378,-2.8395,-2.8398,-2.8416,-2.8419,-2.8446,-2.8451,-2.8454,-2.8454,-2.8454,-2.8453,-2.8459,-2.8456,-2.8455,-2.8454,-2.8454,-2.8454,0,-2.8288,-2.8292,-2.832,-2.8332,-2.8336,-2.8355,-2.8366,-2.8382,-2.8387,-2.8409,-2.8415,-2.8422,-2.8443,-2.8448,-2.8474,-2.8476,-2.8508,-2.8506,-2.8503,-2.8503,-2.8522,-2.852,-2.8585,-2.8593,-2.854,-2.8541,-2.8541,0,-2.8313,-2.8331,-2.8345,-2.8357,-2.8364,-2.8383,-2.8394,-2.8397,-2.8409,-2.8427,-2.8441,-2.8461,-2.8478,-2.8513,-2.8521,-2.8541,-2.8539,-2.856,-2.8542,-2.8541,-2.8539,-2.8537,-2.8539,-2.8563,-2.8564,-2.8564,-2.8565,0,-2.8357,-2.8359,-2.8375,-2.8393,-2.8407,-2.8421,-2.8435,-2.8445,-2.8449,-2.8464,-2.8485,-2.8498,-2.8525,-2.8545,-2.8566,-2.8574,-2.8571,-2.8571,-2.8576,-2.8575,-2.8573,-2.8574,-2.8512,-2.8569,-2.8568,-2.8568,-2.8568,-2.8568,-2.8389,-2.8404,-2.8417,-2.8436,-2.8446,-2.846,-2.8475,-2.8482,-2.85,-2.8521,-2.8522,-2.8546,-2.8561,-2.8587,-2.8597,-2.8617,-2.861,-2.8618,-2.862,-2.8622,-2.8623,-2.8571,-2.8621,-2.8621,-2.8621,-2.862,-2.862,0,-2.8432,-2.844,-2.8458,-2.8477,-2.8492,-2.8488,-2.8503,-2.8517,-2.8537,-2.8551,-2.8568,-2.8594,-2.8614,-2.8625,-2.8647,-2.866,-2.8659,-2.8665,-2.8664,-2.8666,-2.8628,-2.8621,-2.8666,-2.8666,-2.8666,-2.8666,-2.8666,-2.8666,-2.8456,-2.8482,-2.8486,-2.8517,-2.8526,-2.8548,-2.8558,-2.857,-2.8582,-2.861,-2.8627,-2.8634,-2.8648,-2.867,-2.8689,-2.8692,-2.87,-2.8707,-2.8709,-2.8673,-2.8669,-2.8664,-2.8657,-2.8709,-2.8709,-2.8745,-2.8746,-2.8746]},{"header":{"parameterUnit":"m.s-1","parameterCategory":1,"la1":30.2991,"la2":30.254,"lo1":-89.0895,"lo2":-89.0444,"dy":0.0017,"dx":0.0017,"nx":28,"ny":28,"refTime":"2024-04-22T03:00:00:Z","depth":0,"parameterNumber":3,"parameterNumberName":"V-component_of_WINDS"},"data":[0,0,0,0,0,0,0,0,0,0,0,0,0,0,0,0,0,0,0,0,0,0,0,0,0,0,0,0,0,0,0,0,0,0,0,0,0,0,0,0,0,0,0,0,0,0,0,0,0,0,0,0,0,0,0,0,0,0,3.3968,3.3969,0,3.4029,3.403,3.403,3.4034,3.4034,3.4033,3.4032,3.4093,3.4096,3.4098,0,0,0,0,0,0,0,0,0,0,0,0,0,3.3855,3.3857,3.3968,3.3969,3.397,3.4029,3.403,3.403,3.4034,3.4034,3.4033,3.4032,3.4093,3.4095,3.4098,0,0,0,0,0,0,0,0,0,0,0,0,0,3.3909,3.3858,3.3968,3.3979,3.398,3.4029,3.403,3.4031,3.4035,3.4034,3.4033,3.4032,3.4092,3.4095,3.4098,3.414,0,0,3.4109,3.411,0,0,0,0,0,0,0,0,3.3906,3.3913,3.3976,3.3978,3.398,3.4023,3.4012,3.4067,3.4035,3.4014,3.4032,3.4031,3.4071,3.4076,3.4089,3.4143,3.4145,3.4109,3.4111,3.4113,3.4114,0,0,0,0,0,0,0,3.3902,3.391,3.3992,3.3977,3.3979,3.398,3.3987,3.4023,3.4047,3.4016,3.4016,3.4023,3.4072,3.4086,3.4091,3.4146,3.4109,3.4112,3.4114,3.4115,3.4237,3.4238,0,0,0,0,0,0,3.3896,3.3907,3.399,3.3994,3.394,3.3983,3.3991,3.401,3.4047,3.4052,3.4024,3.4023,3.4081,3.4087,3.4093,3.4144,3.4113,3.4116,3.4118,3.4236,3.4237,3.4239,0,0,0,0,0,0,3.3894,3.3904,3.3988,3.3951,3.3961,3.3986,3.4008,3.4012,3.4027,3.4053,3.4058,3.4035,3.408,3.4088,3.4128,3.4146,3.4117,3.412,3.4235,3.4236,3.4238,3.4247,0,0,0,0,0,0,3.389,3.3903,3.3919,3.3951,3.3963,3.4022,3.4009,3.4014,3.4033,3.4032,3.4064,3.4069,3.408,3.4123,3.4132,3.4151,3.4123,3.4233,3.4235,3.4237,3.4245,3.4249,3.4252,0,0,0,0,0,3.3886,3.3918,3.3919,3.3929,3.3984,3.4023,3.403,3.4043,3.4034,3.405,3.4068,3.4068,3.4143,3.4127,3.4137,3.4157,3.4232,3.4235,3.4237,3.4243,3.4248,3.4252,0,0,0,0,0,0,3.3886,3.3923,3.3924,3.3968,3.3992,3.4024,3.4045,3.4047,3.4075,3.4073,3.4088,3.4095,3.4135,3.415,3.4132,3.4199,3.4187,3.4191,3.4188,3.4192,3.4196,3.4191,3.4126,0,0,0,0,0,3.3892,3.3921,3.3951,3.3986,3.3998,3.4019,3.4037,3.4045,3.4071,3.4081,3.4102,3.4127,3.4156,3.4175,3.4204,3.4247,3.4255,3.4266,3.4269,3.4272,3.4276,3.43,3.4306,3.4248,3.4248,3.4247,0,0,3.3902,3.3926,3.3943,3.3987,3.4007,3.4036,3.4028,3.406,3.4082,3.4086,3.4125,3.4141,3.417,3.4212,3.4232,3.4226,3.4294,3.4275,3.4277,3.428,3.4304,3.4309,3.4314,3.4249,3.4249,3.4249,0,0,3.3937,3.3958,3.399,3.401,3.4041,3.4055,3.4063,3.4094,3.4105,3.4145,3.4149,3.4176,3.4226,3.4247,3.4264,3.4308,3.4309,3.4317,3.4334,3.4358,3.4363,3.4367,3.4382,3.4388,3.432,3.432,3.432,0,3.3946,3.3991,3.4005,3.4038,3.4057,3.4063,3.4095,3.4114,3.4153,3.4166,3.4159,3.4223,3.4243,3.429,3.4301,3.4315,3.4324,3.4313,3.4361,3.4365,3.4369,3.4384,3.439,3.4321,3.4321,3.4321,3.4321,0,3.4002,3.4033,3.4055,3.4093,3.4115,3.4146,3.4165,3.4186,3.4192,3.4207,3.4248,3.4272,3.4306,3.4318,3.4324,3.4366,3.4362,3.4358,3.4345,3.4375,3.439,3.4396,3.4322,3.4322,3.4322,3.4321,0,0,3.4037,3.4083,3.4091,3.4108,3.4144,3.4168,3.4201,3.4234,3.4252,3.4278,3.4306,3.4349,3.4346,3.4365,3.4374,3.4395,3.4429,3.4389,3.4389,3.4395,3.4477,3.448,3.4486,3.443,3.4431,3.4432,3.4475,0,3.4076,3.4134,3.4148,3.4198,3.4227,3.4234,3.4262,3.4287,3.4302,3.4329,3.4345,3.4376,3.4369,3.4381,3.4402,3.442,3.4445,3.4417,3.4455,3.4457,3.4448,3.4494,3.4496,3.4535,3.448,3.4481,3.4482,0,3.4128,3.4157,3.421,3.4242,3.4255,3.428,3.4313,3.4338,3.4367,3.4376,3.4398,3.4405,3.4439,3.4426,3.4473,3.4454,3.447,3.4481,3.4483,3.4487,3.4471,3.4498,3.4548,3.4554,3.4491,3.449,3.449,0,3.4149,3.4201,3.4239,3.4254,3.4292,3.431,3.4327,3.4354,3.4374,3.4402,3.4415,3.4447,3.4464,3.4489,3.4504,3.4493,3.455,3.4538,3.4559,3.4558,3.457,3.4569,3.4623,3.4581,3.4581,3.4581,3.4581,0,3.419,3.4222,3.4249,3.4273,3.4309,3.4325,3.4361,3.4378,3.4402,3.4429,3.4437,3.4462,3.4481,3.4509,3.4521,3.4558,3.4566,3.4575,3.4577,3.4574,3.4573,3.4584,3.4582,3.4583,3.4582,3.4582,3.4582,0,3.4219,3.4238,3.4281,3.4314,3.4323,3.4349,3.4377,3.44,3.4416,3.445,3.4459,3.4483,3.4517,3.4535,3.4576,3.4584,3.4626,3.4627,3.4617,3.4618,3.4638,3.4636,3.4701,3.471,3.4663,3.4663,3.4663,0,3.4244,3.4269,3.4305,3.4324,3.4342,3.4372,3.4392,3.4409,3.443,3.4465,3.4484,3.4518,3.4546,3.4599,3.462,3.4652,3.4654,3.4675,3.4659,3.4654,3.4654,3.4652,3.4655,3.4677,3.4677,3.4678,3.4678,0,3.4286,3.4295,3.4324,3.4357,3.4381,3.4408,3.4434,3.4449,3.4471,3.4494,3.4529,3.455,3.4593,3.4627,3.466,3.4677,3.4681,3.4683,3.469,3.4686,3.4679,3.4683,3.4624,3.4681,3.4681,3.4681,3.4681,3.4681,3.4314,3.4337,3.4366,3.4399,3.442,3.4445,3.4469,3.4488,3.4517,3.4554,3.4562,3.4598,3.4627,3.4673,3.4691,3.4719,3.4715,3.4725,3.4727,3.4729,3.473,3.4675,3.4726,3.4725,3.4725,3.4725,3.4725,0,3.4356,3.4376,3.4406,3.4443,3.4469,3.4471,3.4501,3.4522,3.4554,3.458,3.4608,3.4648,3.4681,3.4705,3.4738,3.4757,3.4759,3.4765,3.4763,3.4767,3.4732,3.4723,3.4762,3.4762,3.4762,3.4762,3.4762,3.4762,3.4381,3.442,3.4433,3.4482,3.4502,3.4538,3.4555,3.4578,3.4599,3.4643,3.4671,3.4687,3.4712,3.4748,3.4778,3.4784,3.4796,3.4801,3.4808,3.4774,3.477,3.4766,3.4758,3.4804,3.4804,3.4841,3.4841,3.4842]}]]